Weather History for Rogers, AR

Change the Weather History Date:

Friday, November 9, 2012

  Actual Average Record
Temperature  
Mean Temperature 64 °F -  
Max Temperature 73 °F 56 °F 84 °F (2006)
Min Temperature 54 °F 40 °F 26 °F (2008)
Degree Days  
Heating Degree Days 2    
Growing Degree Days 14 (Base 50)    
Moisture  
Dew Point 53 °F    
Average Humidity 67    
Maximum Humidity 83    
Minimum Humidity 55    
Precipitation  
Precipitation 0.00 in - - ()
Sea Level Pressure  
Sea Level Pressure 29.97 in    
Wind  
Wind Speed 15 mph (South)    
Max Wind Speed 25 mph    
Max Gust Speed 30 mph    
Visibility 9 miles    
Events      
Averages and records for this station are not official NWS values.
T = Trace of Precipitation, MM = Missing Value Source: NWS Daily Summary

Daily Weather History Graph

Daily Weather History Graph

Search for Another Location

Airport:

Trip Planner

Search our weather history database for the weather conditions in past years. The results will help you decide how hot, cold, wet, or windy it might be!

Date:

Astronomy

Nov. 09, 2012 Rise Set
Actual Time 6:48 AM CST 5:12 PM CST
Civil Twilight 6:20 AM CST 5:39 PM CST
Nautical Twilight 5:50 AM CST 6:10 PM CST
Astronomical Twilight 5:19 AM CST 6:40 PM CST
Moon 1:55 AM CST (11/9) 2:18 PM CST (11/9)
Length of Visible Light 11h 18m
Length of Day
10h 24m
Waning Crescent, 23% of the Moon is Illuminated
Nov 9
Waning Crescent
Nov 13
New
Nov 20
First Quarter
Nov 28
Full
Dec 6
Last Quarter

Hourly Weather History & Observations

Time (CST) Temp. Dew Point Humidity Pressure Visibility Wind Dir Wind Speed Gust Speed Precip Events Conditions
12:57 AM 54.0 °F 42.1 °F 64% 29.98 in 10.0 mi SE 11.5 mph - N/A   Clear
1:57 AM 54.0 °F 43.0 °F 66% 29.97 in 10.0 mi SE 9.2 mph - N/A   Clear
3:57 AM 54.0 °F 44.1 °F 69% 29.98 in 10.0 mi SE 9.2 mph - N/A   Clear
4:57 AM 55.0 °F 46.0 °F 72% 29.99 in 10.0 mi SE 8.1 mph - N/A   Clear
5:57 AM 57.0 °F 48.9 °F 74% 29.99 in 10.0 mi South 15.0 mph - N/A   Clear
6:57 AM 57.0 °F 50.0 °F 77% 30.00 in 10.0 mi South 13.8 mph - N/A   Clear
7:52 AM 59.0 °F 53.6 °F 82% 30.02 in 10.0 mi South 18.4 mph 24.2 mph N/A   Mostly Cloudy
7:57 AM 59.0 °F 54.0 °F 83% 30.01 in 10.0 mi South 18.4 mph - N/A   Mostly Cloudy
8:57 AM 63.0 °F 55.0 °F 75% 30.01 in 10.0 mi South 21.9 mph 26.5 mph N/A   Partly Cloudy
9:57 AM 66.0 °F 55.9 °F 70% 30.01 in 10.0 mi South 17.3 mph 24.2 mph N/A   Clear
10:19 AM 68.0 °F 57.2 °F 68% 30.04 in 1.0 mi South 18.4 mph 27.6 mph N/A   Unknown
10:27 AM 68.0 °F 55.4 °F 64% 30.03 in 1.0 mi SSW 25.3 mph 29.9 mph N/A   Partly Cloudy
10:31 AM 68.0 °F 55.4 °F 64% 30.03 in 10.0 mi SSW 18.4 mph 29.9 mph N/A   Partly Cloudy
10:57 AM 69.1 °F 55.9 °F 63% 30.01 in 10.0 mi South 21.9 mph 29.9 mph N/A   Clear
11:57 AM 70.0 °F 55.9 °F 61% 29.98 in 10.0 mi South 17.3 mph 27.6 mph N/A   Clear
12:57 PM 72.0 °F 57.0 °F 59% 29.94 in 10.0 mi SSW 23.0 mph 28.8 mph N/A   Clear
1:57 PM 73.0 °F 55.9 °F 55% 29.92 in 10.0 mi South 17.3 mph - N/A   Clear
2:57 PM 73.0 °F 55.9 °F 55% 29.90 in 10.0 mi South 16.1 mph 26.5 mph N/A   Clear
3:57 PM 72.0 °F 55.9 °F 57% 29.90 in 10.0 mi South 16.1 mph 21.9 mph N/A   Clear
4:57 PM 70.0 °F 55.9 °F 61% 29.90 in 10.0 mi SSE 17.3 mph - N/A   Clear
5:57 PM 66.9 °F 55.9 °F 68% 29.92 in 10.0 mi South 13.8 mph 19.6 mph N/A   Clear
6:57 PM 66.0 °F 55.0 °F 68% 29.92 in 10.0 mi SSE 12.7 mph - N/A   Clear
7:57 PM 64.9 °F 55.0 °F 70% 29.93 in 10.0 mi SSE 11.5 mph - N/A   Clear
8:57 PM 66.0 °F 55.0 °F 68% 29.93 in 10.0 mi South 16.1 mph - N/A   Clear
9:57 PM 66.0 °F 55.0 °F 68% 29.93 in 10.0 mi South 19.6 mph - N/A   Clear
10:57 PM 64.9 °F 54.0 °F 68% 29.94 in 10.0 mi South 17.3 mph - N/A   Clear
11:57 PM 64.9 °F 53.1 °F 65% 29.94 in 10.0 mi South 13.8 mph - N/A   Clear